{"data":{"norad_id":66058,"epoch":"2026-05-25T00:22:36.156000Z","epoch_age_seconds":73443,"freshness":"FRESH","line1":"1 66058U 25235A   26145.01569625  .00025508  00000+0  76341-3 0  9997","line2":"2 66058  53.1587 247.4162 0001789  89.6390 270.4818 15.34403489 34651","mean_motion":15.34403489,"eccentricity":0.0001789,"inclination_deg":53.1587,"raan_deg":247.4162,"arg_perigee_deg":89.639,"mean_anomaly_deg":270.4818,"bstar":0.00076341,"rev_number":3465,"period_min":93.847544685816,"perigee_km":461.46904571971,"apogee_km":463.91669464726,"semimajor_km":6840.8298701835,"source":"CELESTRAK","updated_at":"2026-05-25T13:38:21.019567Z"}}